Location: Trois-Rivi�res
(46.3500°N, 72.5500°W)
Time: 13:54:14
(UTC-05:00)

N. Korean satellite - Pass Details

Date: 09 October 2017
Orbit: 461 x 513 km, 97.2° (Epoch: 12 December)

Event Time Altitude Azimuth Distance (km) Brightness Sun altitude
Rises 19:50:00 0° 206° (SSW) 2,565 10.5 -17.3°
Maximum altitude 19:55:01 16° 268° (W) 1,337 9.8 -18.2°
Drops below altitude 10° 19:57:19 10° 308° (NW) 1,668 10.2 -18.6°
Sets 20:00:00 0° 331° (NNW) 2,542 10.8 -19.0°
